FW2027 Weather Reports


Display with metric or nautical units.
time (UTC)temp
F
wind
direction
speed
MPH
gust
MPH
rain 1hr
in
rain 24hr
in
rain mn
in
humidity
%
barometer
mb
20260902184539 67 154 4.0 7.0 0.00 0.06 0.06 90 1012.7
20260902183038 67 198 3.0 12.0 0.00 0.06 0.06 90 1012.9
20260902181538 67 237 3.0 10.0 0.00 0.06 0.06 90 1012.7
20260902180041 67 196 5.0 13.0 0.00 0.06 0.06 90 1012.6
20260902174536 68 186 5.0 14.0 0.00 0.06 0.06 90 1012.6
20260902173038 67 171 5.0 14.0 0.00 0.06 0.06 90 1012.4
20260902171534 68 202 5.0 11.0 0.00 0.06 0.06 91 1012.1
20260902170035 67 173 6.0 12.0 0.00 0.06 0.06 91 1012.3
20260902164534 67 179 7.0 13.0 0.00 0.06 0.06 92 1012.4
20260902163033 67 201 5.0 13.0 0.00 0.06 0.06 92 1012.3
20260902161532 68 211 6.0 15.0 0.00 0.06 0.06 91 1012.5
20260902160032 68 205 5.0 14.0 0.00 0.06 0.06 91 1012.4
20260902154530 68 192 8.0 16.0 0.00 0.06 0.06 93 1012.4
20260902153029 68 210 7.0 19.0 0.00 0.06 0.06 93 1012.2
20260902151527 68 259 8.0 12.0 0.00 0.06 0.06 96 1012.3
20260902150024 67 206 9.0 14.0 0.00 0.06 0.06 98 1012.4
20260902144532 66 222 8.0 15.0 0.00 0.06 0.06 98 1012.6
20260902143020 66 185 7.0 15.0 0.00 0.06 0.06 98 1012.7
20260902141519 66 171 8.0 17.0 0.01 0.06 0.06 98 1012.6
20260902140015 65 149 8.0 13.0 0.02 0.06 0.06 98 1012.7
20260902134512 65 207 7.0 14.0 0.02 0.06 0.06 98 1012.8
20260902133010 64 172 7.0 14.0 0.02 0.06 0.06 98 1013.0
20260902131509 64 194 6.0 12.0 0.02 0.05 0.05 98 1013.2
20260902130005 64 173 6.0 12.0 0.01 0.04 0.04 98 1013.4
20260902124504 63 182 6.0 14.0 0.00 0.03 0.03 97 1013.2
20260902123001 63 175 6.0 10.0 0.02 0.03 0.03 97 1013.6
20260902121501 63 164 7.0 12.0 0.02 0.03 0.03 97 1013.7
20260902120100 63 184 6.0 12.0 0.02 0.03 0.03 97 1013.6
20260902114604 63 168 6.0 11.0 0.02 0.03 0.03 96 1014.1
20260902113058 63 150 11.0 18.0 0.00 0.02 0.02 96 1014.1
20260902111553 63 181 7.0 10.0 0.00 0.02 0.02 96 1014.4
20260902110051 62 151 5.0 8.0 0.00 0.02 0.02 97 1014.7
20260902104555 62 165 7.0 12.0 0.01 0.02 0.02 96 1014.9
20260902103049 62 163 6.0 10.0 0.01 0.02 0.02 96 1015.1
20260902101546 62 169 4.0 10.0 0.01 0.02 0.02 96 1015.2
20260902094543 61 192 5.0 8.0 0.00 0.01 0.01 94 1015.4
20260902093042 61 165 4.0 8.0 0.00 0.01 0.01 94 1015.4
20260902091559 61 178 3.0 7.0 0.00 0.01 0.01 95 1015.5
20260902090039 61 169 5.0 9.0 0.00 0.01 0.01 96 1015.8
20260902084541 61 165 5.0 8.0 0.00 0.01 0.01 96 1015.7
20260902083036 60 144 2.0 8.0 0.00 0.01 0.01 96 1015.8
20260902081536 60 134 2.0 9.0 0.00 0.01 0.01 96 1016.0
20260902080045 60 173 4.0 6.0 0.00 0.01 0.01 96 1016.1
20260902074533 60 176 3.0 7.0 0.00 0.01 0.01 96 1016.2
20260902073032 60 165 3.0 7.0 0.00 0.01 0.01 96 1016.2
20260902071549 60 171 2.0 6.0 0.00 0.01 0.01 96 1016.1
20260902070027 60 184 3.0 6.0 0.01 0.01 0.01 96 1016.1
20260902064527 60 172 3.0 6.0 0.01 0.01 0.01 96 1016.0
20260902063028 60 173 2.0 5.0 0.01 0.01 0.01 96 1016.0
20260902061539 59 160 0.0 2.0 0.01 0.01 0.01 95 1015.9
20260902060029 59 161 0.0 0.0 0.00 0.00 0.00 95 1015.9
20260902054533 59 161 0.0 0.0 0.00 0.00 0.00 95 1015.8
20260902053022 59 161 1.0 3.0 0.00 0.00 0.00 94 1015.5
20260902051518 59 161 2.0 5.0 0.00 0.00 0.00 95 1015.6
20260902050023 59 168 0.0 2.0 0.00 0.00 0.00 94 1015.8
20260902044517 59 161 1.0 3.0 0.00 0.00 0.00 94 1016.0
20260902043016 59 159 1.0 5.0 0.00 0.00 0.00 94 1015.9
20260902041519 59 180 0.0 3.0 0.00 0.00 0.00 94 1016.1
20260902040013 59 186 0.0 3.0 0.00 0.00 0.00 93 1015.9
20260902034512 59 222 2.0 6.0 0.00 0.00 0.00 94 1016.1
20260902033011 60 180 1.0 4.0 0.00 0.00 0.00 94 1016.2
20260902031509 60 161 2.0 4.0 0.00 0.00 0.00 93 1016.2
20260902030008 60 160 0.0 3.0 0.00 0.00 0.00 93 1016.3
20260902024511 60 193 1.0 3.0 0.00 0.00 0.00 93 1016.4
20260902023014 60 178 0.0 2.0 0.00 0.00 0.00 93 1016.6
20260902021506 60 178 0.0 3.0 0.00 0.00 0.00 93 1016.7
20260902020004 60 185 0.0 3.0 0.00 0.00 0.00 93 1016.8
20260902014504 60 157 1.0 3.0 0.00 0.00 0.00 93 1016.7
20260902013059 60 149 1.0 4.0 0.00 0.00 0.00 92 1016.9
20260902011601 59 166 0.0 2.0 0.00 0.00 0.00 92 1017.0
20260902010118 60 167 0.0 3.0 0.00 0.00 0.00 92 1017.2
20260902004554 59 163 0.0 4.0 0.00 0.00 0.00 91 1017.3
20260902003051 59 164 0.0 0.0 0.00 0.00 0.00 91 1017.5
20260902001550 60 164 0.0 3.0 0.00 0.00 0.00 90 1017.6
20260902000050 60 182 2.0 4.0 0.00 0.00 0.00 90 1017.6
20260901234541 60 188 1.0 5.0 0.00 0.00 0.00 89 1017.5
20260901233038 60 176 2.0 4.0 0.00 0.00 0.00 89 1017.6
20260901231542 60 199 1.0 4.0 0.00 0.00 0.00 88 1017.7
20260901230035 60 188 1.0 4.0 0.00 0.00 0.00 88 1017.6
20260901224540 60 196 1.0 4.0 0.00 0.00 0.00 87 1017.8
20260901223045 60 177 2.0 6.0 0.00 0.00 0.00 86 1017.8
20260901221529 60 196 1.0 3.0 0.00 0.00 0.00 85 1017.9
20260901220031 60 191 1.0 5.0 0.00 0.00 0.00 85 1017.9
20260901214529 60 196 3.0 6.0 0.00 0.00 0.00 86 1017.8
20260901213034 60 192 0.0 3.0 0.00 0.00 0.00 86 1017.8
20260901211529 60 196 1.0 3.0 0.00 0.00 0.00 85 1018.1
20260901210037 61 203 1.0 3.0 0.00 0.00 0.00 84 1017.8
20260901204529 61 196 0.0 2.0 0.00 0.00 0.00 85 1017.8
20260901203025 61 183 0.0 2.0 0.00 0.00 0.00 84 1018.0
20260901201524 61 180 1.0 4.0 0.00 0.00 0.00 84 1017.8
20260901200039 62 166 0.0 3.0 0.00 0.00 0.00 83 1017.8
20260901194523 62 185 0.0 3.0 0.00 0.00 0.00 81 1017.8
20260901193022 63 234 2.0 7.0 0.00 0.00 0.00 81 1017.8
20260901191529 62 242 2.0 4.0 0.00 0.00 0.00 81 1017.6
20260901190022 63 248 0.0 6.0 0.00 0.00 0.00 81 1017.6